LIRPLIEA

Guest
Details From LIRP - Pisa
To LIEA - Alghero
Flight Number -
Tags Routegen Generated
Created
Modified
Stats Distance 204 nm / 378 km
Max Altitude 1,300 ft / 396 m
Waypoints 5
Social Downloads 1
Likes 0
Share VATSIM

Download

Looking for another format? Having issues loading an existing format? Contact us
Advertisement - Login to hide

Notes

Departing runway 21 LIRP. Arriving runway 2 LIEA.

Route

LIRP +43.62_+010.32 +42.64_+009.64 +40.71_+008.34 LIEA

ID Type Via Altitude Latitude Longitude Leg Dist Tot Dist Heading (true) Name
O LIRP APT - 1,300 ft / 396 m 43.67308˚ 10.38323˚ - 0 nm - -
+43.62_+010.32 LATLON - 1,300 ft / 396 m 43.61507˚ 10.32345˚ 4 nm 4 nm 217° / 217° -
+42.64_+009.64 LATLON - 1,300 ft / 396 m 42.64186˚ 9.63558˚ 65 nm 70 nm 208° / 207° -
+40.71_+008.34 LATLON - 1,300 ft / 396 m 40.71025˚ 8.33777˚ 129 nm 199 nm 207° / 206° -
O LIEA APT - 0 ft / 0 m 40.64442˚ 8.29816˚ 4 nm 204 nm 205° / 205° -

Altitude Profile

Advertisement - Login to hide

Weather


0- 5 10 15 20 25 30 35+ Temperature / ° C

Clouds and Precipitation
Forecast for 2018-05-22 06:00 UTC. Updated an hour ago

Ground ~20,000 ft ~40,000 ft Winds

LIRP

Details ICAO LIRP (PSA)
Name PISA
Region Italy
Timezone Europe/Rome (UTC+2.0)
Stats Elevation 6 ft / 2 m (AMSL)
Location 43.683883° 10.392724°
Runways 2
Magnetic Variation 2.752° E

METAR

LIRP 220615Z 11006KT 8000 SCT010 SCT020 16/16 Q1012 NOSIG

Decode

TAF

TAF LIRP 220500Z 2206/2306 08005KT 6000 SCT010 BKN020 TEMPO 2206/2212 3000 BR RA PROB30 TEMPO 2208/2212 12010G20KT 2000 TSRA SCT015CB BKN025

Decode

Departure Runways

ID Width Length Bearing (true) Bearing (mag) Surface Threshold Offset Overrun Length
04L 141 ft / 43 m 9,158 ft / 2,791 m 36.70° 33.95° Asphalt 979 ft / 298 m 0 ft / 0 m
04R 148 ft / 45 m 9,819 ft / 2,993 m 36.72° 33.97° Asphalt 490 ft / 149 m 0 ft / 0 m
22L 148 ft / 45 m 9,819 ft / 2,993 m 216.73° 213.98° Asphalt 843 ft / 257 m 0 ft / 0 m
22R 141 ft / 43 m 9,158 ft / 2,791 m 216.72° 213.97° Asphalt 0 ft / 0 m 0 ft / 0 m

LIEA

Details ICAO LIEA (AHO)
Name ALGHERO
Region Italy
Timezone Europe/Rome (UTC+2.0)
Stats Elevation 87 ft / 27 m (AMSL)
Location 40.632132° 8.290774°
Runways 1
Magnetic Variation 2.240° E

METAR

LIEA 220620Z 19005KT 160V230 9999 FEW018TCU SCT035 18/16 Q1012

Decode

TAF

TAF LIEA 220500Z 2206/2306 22010KT 9999 SCT030 TEMPO 2206/2209 4000 SHRA

Decode

Destination Runways

ID Width Length Bearing (true) Bearing (mag) Surface Threshold Offset Overrun Length
02 148 ft / 45 m 9,854 ft / 3,004 m 24.51° 22.27° Asphalt 0 ft / 0 m 0 ft / 0 m
20 148 ft / 45 m 9,854 ft / 3,004 m 204.52° 202.28° Asphalt 0 ft / 0 m 0 ft / 0 m

Approach Navaids

Runway Type Ident Frequency Range Bearing (true) Bearing (mag) Slope Elevation
20 Localiser IALF 110.15 MHz 18 nm / 33 km 204.47° 202.23° - 72 ft / 22 m (AMSL)
20 Glidescope IALF 110.15 MHz 10 nm / 19 km 204.51° 202.27° 3.00° 133 ft / 41 m (AMSL)
20 DME IALF 110.15 MHz 25 nm / 46 km - - - 133 ft / 41 m (AMSL)

Popular Alternatives